User: anonymous   Login
Location: Bonaustraße
(48.4603°N, 11.9280°E)
Time: 22:43:27
(UTC+02:00)
Language:

AO-92 - Orbit

View from above orbital plane
View from above orbital plane
View from above satellite
View from above satellite

Ground track
Ground track

The orbit data is extracted from the following two-line orbital elements,

1 43137U 18004AC  21204.41374725  .00001890  00000-0  77645-4 0  9994
2 43137  97.4055 278.0782 0010473  86.2396 274.0039 15.25393980196144
Epoch (UTC): 23 July 2021 09:55:47
Eccentricity: 0.0010473
inclination: 97.4055°
perigee height: 482 km
apogee height: 497 km
right ascension of ascending node: 278.0782°
argument of perigee: 86.2396°
revolutions per day: 15.25393980
mean anomaly at epoch: 274.0039°
orbit number at epoch: 19614

The dashed part of the orbit path shows where the satellite is in the earth's shadow,  

DLR